Terminal Aerodrome Forecast
Issued by NWS

Home | Current Version | Previous Version | Text Only | Print | Product List | Glossary On
Versions: 1 2 3 4 5 6 7 8 9 10 11 12 13 14 15 16 17 18 19 20 21 22 23
000
FTUS41 KBTV 300500
TAFRUT
TAF
KRUT 300523Z 3006/3106 13008KT P6SM SKC
     FM300800 12008KT P6SM BCFG SKC
     FM301200 20006KT P6SM SCT045
     FM310000 14006KT P6SM SKC
      AMD LTD TO CLD VIS AND WIND=

USA.gov is the U.S. government's official web portal to all federal, state and local government web resources and services.